CW3330 Weather Reports


time (UTC)temp
C
wind
direction
speed
KPH
gust
KPH
rain 1hr
cm
rain 24hr
cm
rain mn
cm
humidity
%
barometer
mb
20260507142307 16 57 11.3 25.7 0.00 0.00 0.00 51 1016.5
20260507141749 16 76 17.7 25.7 0.00 0.00 0.00 50 1016.5
20260507140306 16 29 9.7 19.3 0.00 0.00 0.00 52 1016.6
20260507135306 16 13 12.9 25.7 0.00 0.00 0.00 53 1016.4
20260507134307 16 61 11.3 27.4 0.00 0.00 0.00 54 1016.5
20260507133306 16 205 4.8 25.7 0.00 0.00 0.00 48 1016.4
20260507132307 16 26 11.3 19.3 0.00 0.00 0.00 57 1016.5
20260507131306 16 28 11.3 22.5 0.00 0.00 0.00 54 1016.4
20260507130740 16 53 9.7 20.9 0.00 0.00 0.00 56 1016.3
20260507125307 16 66 17.7 29.0 0.00 0.00 0.00 52 1016.5
20260507124306 16 52 14.5 27.4 0.00 0.00 0.00 53 1016.4
20260507123743 16 13 9.7 22.5 0.00 0.00 0.00 54 1016.3
20260507122307 16 84 4.8 19.3 0.00 0.00 0.00 50 1016.2
20260507121306 15 110 8.0 22.5 0.00 0.00 0.00 56 1016.2
20260507120306 16 57 9.7 20.9 0.00 0.00 0.00 56 1016.1
20260507115307 15 91 12.9 22.5 0.00 0.00 0.00 57 1016.2
20260507114306 15 76 12.9 22.5 0.00 0.00 0.00 56 1016.2
20260507113746 15 116 12.9 27.4 0.00 0.00 0.00 55 1016.2
20260507112307 15 68 8.0 22.5 0.00 0.00 0.00 56 1016.2
20260507111307 15 102 9.7 22.5 0.00 0.00 0.00 51 1016.1
20260507110307 15 69 3.2 20.9 0.00 0.00 0.00 58 1016.1
20260507105307 15 77 8.0 19.3 0.00 0.00 0.00 56 1016.2
20260507104305 15 82 12.9 22.5 0.00 0.00 0.00 53 1016.2
20260507103307 14 89 9.7 17.7 0.00 0.00 0.00 60 1016.2
20260507102307 14 70 8.0 20.9 0.00 0.00 0.00 62 1016.1
20260507100306 13 81 9.7 17.7 0.00 0.00 0.00 63 1015.9
20260507095306 13 53 11.3 19.3 0.00 0.00 0.00 66 1015.9
20260507094306 13 85 6.4 20.9 0.00 0.00 0.00 66 1015.9
20260507092307 12 82 9.7 22.5 0.00 0.00 0.00 61 1015.8
20260507091319 12 80 6.4 20.9 0.00 0.00 0.00 63 1015.8
20260507090746 12 55 8.0 17.7 0.00 0.00 0.00 60 1015.7
20260507085306 12 98 6.4 19.3 0.00 0.00 0.00 66 1015.6
20260507084306 12 80 9.7 30.6 0.00 0.00 0.00 65 1015.5
20260507083306 12 17 9.7 17.7 0.00 0.00 0.00 67 1015.5
20260507082744 11 65 8.0 20.9 0.00 0.00 0.00 68 1015.3
20260507081306 11 5 8.0 20.9 0.00 0.00 0.00 68 1015.3
20260507080307 11 52 9.7 20.9 0.00 0.00 0.00 70 1015.5
20260507075307 11 133 11.3 19.3 0.00 0.00 0.00 69 1015.2
20260507074305 10 69 11.3 17.7 0.00 0.00 0.00 70 1015.1
20260507073305 10 107 8.0 19.3 0.00 0.00 0.00 71 1015.0
20260507072307 10 83 6.4 22.5 0.00 0.00 0.00 72 1014.9
20260507071305 10 71 8.0 20.9 0.00 0.00 0.00 69 1015.2
20260507070306 10 76 11.3 17.7 0.00 0.00 0.00 77 1015.0
20260507065307 9 57 4.8 20.9 0.00 0.00 0.00 78 1014.9
20260507064305 9 49 3.2 17.7 0.00 0.00 0.00 79 1015.0
20260507063800 9 107 6.4 20.9 0.00 0.00 0.00 80 1014.9
20260507062306 8 85 6.4 19.3 0.00 0.00 0.00 81 1014.8
20260507061305 8 45 8.0 19.3 0.00 0.00 0.00 83 1014.6
20260507060740 8 100 4.8 17.7 0.00 0.00 0.00 85 1014.5
20260507055306 8 70 8.0 16.1 0.00 0.00 0.00 85 1014.5
20260507054306 7 83 6.4 16.1 0.00 0.00 0.00 87 1014.5
20260507053306 7 70 3.2 14.5 0.00 0.00 0.00 88 1014.5
20260507052307 7 86 6.4 11.3 0.00 0.00 0.00 90 1014.3
20260507051306 6 64 4.8 8.0 0.00 0.00 0.00 91 1014.2
20260507050306 6 62 1.6 4.8 0.00 0.00 0.00 92 1014.1
20260507045307 6 61 0.0 0.0 0.00 0.00 0.00 92 1014.0
20260507044305 5 61 0.0 0.0 0.00 0.00 0.00 93 1013.7
20260507042307 5 61 0.0 0.0 0.00 0.00 0.00 93 1013.7
20260507041305 4 61 0.0 0.0 0.00 0.00 0.00 93 1013.6
20260507040306 4 61 0.0 0.0 0.00 0.00 0.00 93 1013.6
20260507035306 4 61 0.0 0.0 0.00 0.00 0.00 92 1013.5
20260507034305 4 61 0.0 0.0 0.00 0.00 0.00 92 1013.4
20260507033306 5 61 0.0 0.0 0.00 0.00 0.00 92 1013.4
20260507032748 5 61 0.0 3.2 0.00 0.00 0.00 92 1013.3
20260507031750 5 61 1.6 3.2 0.00 0.00 0.00 92 1013.3
20260507030319 5 61 1.6 4.8 0.00 0.00 0.00 92 1013.3
20260507024306 5 61 3.2 6.4 0.00 0.00 0.00 92 1013.1
20260507023754 5 59 0.0 4.8 0.00 0.00 0.00 91 1013.1
20260507022306 5 58 3.2 6.4 0.00 0.00 0.00 91 1013.1
20260507021319 5 60 3.2 6.4 0.00 0.00 0.00 91 1012.9
20260507020310 5 60 3.2 6.4 0.00 0.00 0.00 91 1012.8
20260507015308 5 60 4.8 6.4 0.00 0.00 0.00 91 1012.8
20260507014306 5 61 1.6 4.8 0.00 0.00 0.00 90 1012.6
20260507013306 5 61 3.2 4.8 0.00 0.00 0.00 90 1012.6
20260507012800 5 62 1.6 4.8 0.00 0.00 0.00 89 1012.6
20260507011305 5 62 3.2 4.8 0.00 0.00 0.00 89 1012.6
20260507010306 6 63 1.6 4.8 0.00 0.00 0.00 89 1012.5
20260507005306 6 63 3.2 4.8 0.00 0.00 0.00 89 1012.4
20260507004305 6 63 1.6 4.8 0.00 0.00 0.00 89 1012.4
20260507003306 6 62 3.2 4.8 0.00 0.00 0.00 89 1012.3
20260507002744 6 62 3.2 3.2 0.00 0.00 0.00 89 1012.3
20260507001745 6 62 1.6 3.2 0.00 0.00 0.00 88 1012.3
20260507000744 6 62 0.0 3.2 0.00 0.00 0.00 87 1012.3
20260506235306 6 62 3.2 6.4 0.00 0.00 0.00 87 1012.2
20260506234305 7 61 3.2 4.8 0.00 0.00 0.00 87 1012.3
20260506233748 7 59 4.8 12.9 0.00 0.00 0.00 86 1012.3
20260506232741 7 72 4.8 11.3 0.00 0.00 0.00 85 1012.3
20260506231320 7 82 4.8 16.1 0.00 0.00 0.00 85 1012.1
20260506230319 7 98 4.8 12.9 0.00 0.00 0.00 85 1012.0
20260506225744 7 82 3.2 12.9 0.00 0.00 0.00 85 1012.0
20260506224305 7 70 4.8 12.9 0.00 0.00 0.00 84 1012.0
20260506223751 8 72 8.0 14.5 0.00 0.00 0.00 83 1011.9
20260506222307 8 73 4.8 17.7 0.00 0.00 0.00 83 1011.8
20260506221322 8 81 6.4 16.1 0.00 0.00 0.00 83 1011.8
20260506220336 8 74 9.7 16.1 0.00 0.00 0.00 83 1011.7
20260506215307 8 82 6.4 16.1 0.00 0.00 0.00 84 1011.7
20260506214324 8 80 6.4 17.7 0.00 0.00 0.00 83 1011.7
20260506213749 8 74 4.8 17.7 0.00 0.00 0.00 83 1011.5
20260506212306 8 80 9.7 19.3 0.00 0.00 0.00 83 1011.4
20260506211305 8 96 9.7 19.3 0.00 0.00 0.00 83 1011.4
20260506210744 8 90 4.8 17.7 0.00 0.00 0.00 83 1011.4
20260506205306 8 100 8.0 17.7 0.00 0.00 0.00 83 1011.3
20260506204307 8 84 6.4 17.7 0.00 0.00 0.00 83 1011.3
20260506203306 9 86 9.7 17.7 0.00 0.00 0.00 82 1011.2
20260506202306 9 46 12.9 19.3 0.00 0.00 0.00 82 1011.2
20260506201313 9 28 6.4 19.3 0.00 0.00 0.00 82 1011.2
20260506200306 9 40 8.0 17.7 0.00 0.00 0.00 81 1011.1
20260506195307 9 78 8.0 20.9 0.00 0.00 0.00 79 1010.9
20260506194307 10 39 6.4 16.1 0.00 0.00 0.00 77 1010.9
20260506193306 10 42 6.4 19.3 0.00 0.00 0.00 76 1010.9
20260506192740 10 69 11.3 19.3 0.00 0.00 0.00 75 1010.8
20260506191306 10 49 9.7 20.9 0.00 0.00 0.00 76 1010.7
20260506190307 10 64 8.0 16.1 0.00 0.00 0.00 76 1010.5
20260506185307 10 40 9.7 20.9 0.00 0.00 0.00 75 1010.4
20260506184744 11 67 8.0 20.9 0.00 0.00 0.00 74 1010.2
20260506183307 11 69 9.7 17.7 0.00 0.00 0.00 73 1010.3
20260506182307 11 65 6.4 19.3 0.00 0.00 0.00 74 1010.2
20260506181305 11 55 8.0 17.7 0.00 0.00 0.00 75 1010.1
20260506180308 12 82 6.4 22.5 0.00 0.00 0.00 74 1010.0
20260506175306 12 70 9.7 19.3 0.00 0.00 0.00 73 1009.8
20260506174305 12 41 8.0 16.1 0.00 0.00 0.00 72 1009.9
20260506173306 12 74 8.0 19.3 0.00 0.00 0.00 71 1009.7
20260506172307 12 63 6.4 20.9 0.00 0.00 0.00 70 1009.7
20260506171309 13 71 8.0 22.5 0.00 0.00 0.00 68 1009.6
20260506170306 13 64 14.5 19.3 0.00 0.00 0.00 66 1009.5
20260506165306 13 32 8.0 22.5 0.00 0.00 0.00 65 1009.5
20260506164305 13 72 11.3 22.5 0.00 0.00 0.00 66 1009.5
20260506163749 13 34 9.7 20.9 0.00 0.00 0.00 61 1009.5
20260506162307 13 40 9.7 25.7 0.00 0.00 0.00 65 1009.5
20260506161305 13 59 8.0 20.9 0.00 0.00 0.00 65 1009.5
20260506160805 13 20 8.0 20.9 0.00 0.00 0.00 63 1009.5
20260506155306 14 46 11.3 22.5 0.00 0.00 0.00 55 1009.5
20260506154305 14 84 6.4 19.3 0.00 0.00 0.00 57 1009.6
20260506153305 14 59 11.3 22.5 0.00 0.00 0.00 56 1009.6
20260506152748 14 59 8.0 17.7 0.00 0.00 0.00 55 1009.6
20260506151305 14 61 11.3 19.3 0.00 0.00 0.00 52 1009.5
20260506150307 14 63 11.3 27.4 0.00 0.00 0.00 52 1009.5
20260506145306 14 31 12.9 22.5 0.00 0.00 0.00 52 1009.5
20260506144306 14 61 11.3 25.7 0.00 0.00 0.00 50 1009.5
20260506143306 14 65 14.5 27.4 0.00 0.00 0.00 49 1009.5